| time (UTC) | temp F | wind direction | speed MPH | gust MPH | rain 1hr in | rain 24hr in | rain mn in | humidity % | barometer mb |
| 20260904161610 | 61 | 112 | 4.0 | 10.0 | 0.00 | 0.00 | 0.00 | 82 | 1012.8 |
| 20260904160050 | 62 | 113 | 0.0 | 7.0 | 0.00 | 0.00 | 0.00 | 81 | 1012.9 |
| 20260904154549 | 63 | 114 | 0.0 | 7.0 | 0.00 | 0.00 | 0.00 | 80 | 1013.0 |
| 20260904153051 | 64 | 114 | 1.0 | 12.0 | 0.00 | 0.00 | 0.00 | 79 | 1013.0 |
| 20260904151640 | 0 | 83 | 0.0 | 0.0 | 0.00 | 0.00 | 0.00 | 77 | 1012.4 |
| 20260904150022 | 65 | 116 | 3.0 | 14.0 | 0.00 | 0.00 | 0.00 | 76 | 1011.3 |
| 20260904144611 | 66 | 113 | 5.0 | 10.0 | 0.00 | 0.00 | 0.00 | 74 | 1011.2 |
| 20260904143011 | 67 | 99 | 2.0 | 8.0 | 0.00 | 0.00 | 0.00 | 72 | 1011.5 |
| 20260904141520 | 68 | 120 | 2.0 | 12.0 | 0.00 | 0.00 | 0.00 | 70 | 1011.5 |
| 20260904140021 | 68 | 113 | 3.0 | 9.0 | 0.00 | 0.00 | 0.00 | 69 | 1011.4 |
| 20260904134509 | 69 | 131 | 0.0 | 8.0 | 0.00 | 0.00 | 0.00 | 66 | 1011.4 |
| 20260904133013 | 70 | 132 | 0.0 | 0.0 | 0.00 | 0.00 | 0.00 | 62 | 1011.2 |
| 20260904131508 | 68 | 82 | 1.0 | 14.0 | 0.00 | 0.00 | 0.00 | 68 | 1011.1 |
| 20260904130006 | 67 | 84 | 1.0 | 14.0 | 0.00 | 0.00 | 0.00 | 65 | 1011.5 |
| 20260904124504 | 67 | 87 | 4.0 | 12.0 | 0.00 | 0.00 | 0.00 | 57 | 1011.8 |
| 20260904123002 | 68 | 80 | 2.0 | 10.0 | 0.00 | 0.00 | 0.00 | 63 | 1011.8 |
| 20260904121502 | 69 | 120 | 3.0 | 9.0 | 0.00 | 0.00 | 0.00 | 67 | 1011.9 |
| 20260904120110 | 70 | 105 | 2.0 | 10.0 | 0.00 | 0.00 | 0.00 | 65 | 1012.0 |
| 20260904114559 | 71 | 118 | 1.0 | 6.0 | 0.00 | 0.00 | 0.00 | 62 | 1012.2 |
| 20260904113059 | 72 | 101 | 0.0 | 6.0 | 0.00 | 0.00 | 0.00 | 61 | 1012.3 |
| 20260904111556 | 73 | 132 | 0.0 | 5.0 | 0.00 | 0.00 | 0.00 | 62 | 1012.2 |
| 20260904110055 | 77 | 187 | 0.0 | 8.0 | 0.00 | 0.00 | 0.00 | 47 | 1012.5 |
| 20260904104550 | 75 | 272 | 0.0 | 0.0 | 0.00 | 0.00 | 0.00 | 48 | 1012.9 |
| 20260904103048 | 75 | 259 | 0.0 | 7.0 | 0.00 | 0.00 | 0.00 | 50 | 1013.1 |
| 20260904101556 | 73 | 308 | 0.0 | 4.0 | 0.00 | 0.00 | 0.00 | 52 | 1013.1 |
| 20260904100045 | 72 | 287 | 0.0 | 2.0 | 0.00 | 0.00 | 0.00 | 52 | 1013.7 |
| 20260904094546 | 73 | 214 | 1.0 | 7.0 | 0.00 | 0.00 | 0.00 | 52 | 1014.0 |
| 20260904093042 | 71 | 229 | 0.0 | 5.0 | 0.00 | 0.00 | 0.00 | 55 | 1014.1 |
| 20260904091537 | 71 | 225 | 0.0 | 5.0 | 0.00 | 0.00 | 0.00 | 57 | 1014.3 |
| 20260904090038 | 69 | 223 | 0.0 | 5.0 | 0.00 | 0.00 | 0.00 | 57 | 1014.4 |
| 20260904084536 | 71 | 261 | 0.0 | 7.0 | 0.00 | 0.00 | 0.00 | 57 | 1014.4 |
| 20260904083029 | 69 | 261 | 0.0 | 6.0 | 0.00 | 0.00 | 0.00 | 59 | 1014.6 |
| 20260904081526 | 69 | 263 | 0.0 | 6.0 | 0.00 | 0.00 | 0.00 | 62 | 1014.8 |
| 20260904080024 | 68 | 275 | 1.0 | 8.0 | 0.00 | 0.00 | 0.00 | 63 | 1014.8 |
| 20260904074521 | 68 | 229 | 0.0 | 0.0 | 0.00 | 0.00 | 0.00 | 63 | 1015.3 |
| 20260904073017 | 66 | 229 | 0.0 | 5.0 | 0.00 | 0.00 | 0.00 | 66 | 1015.5 |
| 20260904071516 | 65 | 211 | 0.0 | 5.0 | 0.00 | 0.00 | 0.00 | 66 | 1015.8 |
| 20260904070016 | 65 | 173 | 0.0 | 5.0 | 0.00 | 0.00 | 0.00 | 67 | 1016.0 |
| 20260904064515 | 64 | 88 | 0.0 | 0.0 | 0.00 | 0.00 | 0.00 | 68 | 1016.0 |
| 20260904063013 | 63 | 88 | 0.0 | 0.0 | 0.00 | 0.00 | 0.00 | 70 | 1016.1 |
| 20260904061504 | 62 | 88 | 0.0 | 0.0 | 0.00 | 0.00 | 0.00 | 72 | 1016.1 |
| 20260904060118 | 0 | 0.0 | 0.0 | 0.00 | 0.00 | 0.00 | 1016.2 | ||
| 20260904053054 | 60 | 88 | 0.0 | 0.0 | 0.00 | 0.00 | 0.00 | 79 | 1015.4 |
| 20260904051548 | 58 | 88 | 0.0 | 0.0 | 0.00 | 0.00 | 0.00 | 88 | 1015.1 |
| 20260904050050 | 55 | 88 | 0.0 | 0.0 | 0.00 | 0.00 | 0.00 | 93 | 1015.0 |
| 20260904044543 | 52 | 88 | 0.0 | 0.0 | 0.00 | 0.00 | 0.00 | 93 | 1014.9 |
| 20260904043042 | 51 | 88 | 0.0 | 0.0 | 0.00 | 0.00 | 0.00 | 92 | 1014.8 |
| 20260904041543 | 51 | 88 | 0.0 | 0.0 | 0.00 | 0.00 | 0.00 | 92 | 1014.6 |
| 20260904040044 | 51 | 88 | 0.0 | 0.0 | 0.00 | 0.00 | 0.00 | 92 | 1014.6 |
| 20260904034545 | 51 | 88 | 0.0 | 0.0 | 0.00 | 0.00 | 0.00 | 91 | 1014.4 |
| 20260904033039 | 50 | 88 | 0.0 | 0.0 | 0.00 | 0.00 | 0.00 | 91 | 1014.2 |
| 20260904031539 | 51 | 88 | 0.0 | 0.0 | 0.00 | 0.00 | 0.00 | 91 | 1014.0 |
| 20260904030039 | 51 | 88 | 0.0 | 0.0 | 0.00 | 0.00 | 0.00 | 91 | 1013.9 |
| 20260904024537 | 51 | 88 | 0.0 | 0.0 | 0.00 | 0.00 | 0.00 | 90 | 1013.9 |
| 20260904023040 | 51 | 88 | 0.0 | 0.0 | 0.00 | 0.00 | 0.00 | 90 | 1013.7 |
| 20260904021548 | 51 | 88 | 0.0 | 0.0 | 0.00 | 0.00 | 0.00 | 90 | 1013.5 |
| 20260904020035 | 51 | 88 | 0.0 | 0.0 | 0.00 | 0.00 | 0.00 | 90 | 1013.4 |
| 20260904014534 | 51 | 88 | 0.0 | 0.0 | 0.00 | 0.00 | 0.00 | 90 | 1013.3 |
| 20260904013050 | 51 | 88 | 0.0 | 0.0 | 0.00 | 0.00 | 0.00 | 89 | 1013.1 |
| 20260904011532 | 51 | 88 | 0.0 | 0.0 | 0.00 | 0.00 | 0.00 | 89 | 1013.0 |
| 20260904010034 | 51 | 88 | 0.0 | 0.0 | 0.00 | 0.00 | 0.00 | 89 | 1012.9 |
| 20260904004530 | 52 | 88 | 0.0 | 0.0 | 0.00 | 0.00 | 0.00 | 88 | 1012.7 |
| 20260904003030 | 52 | 88 | 0.0 | 0.0 | 0.00 | 0.00 | 0.00 | 87 | 1012.7 |
| 20260904001541 | 53 | 88 | 0.0 | 0.0 | 0.00 | 0.00 | 0.00 | 85 | 1013.0 |
| 20260904000022 | 54 | 88 | 0.0 | 0.0 | 0.00 | 0.00 | 0.00 | 83 | 1013.0 |
| 20260903234521 | 55 | 88 | 0.0 | 3.0 | 0.00 | 0.00 | 0.00 | 83 | 1012.9 |
| 20260903233033 | 54 | 88 | 2.0 | 8.0 | 0.00 | 0.00 | 0.00 | 85 | 1013.0 |
| 20260903231520 | 54 | 89 | 2.0 | 12.0 | 0.00 | 0.00 | 0.00 | 86 | 1013.1 |
| 20260903230024 | 54 | 86 | 4.0 | 15.0 | 0.00 | 0.00 | 0.00 | 85 | 1013.2 |
| 20260903224523 | 54 | 90 | 6.0 | 15.0 | 0.00 | 0.00 | 0.00 | 85 | 1013.2 |
| 20260903223014 | 55 | 79 | 6.0 | 16.0 | 0.00 | 0.00 | 0.00 | 85 | 1013.4 |
| 20260903221511 | 55 | 121 | 9.0 | 17.0 | 0.00 | 0.00 | 0.00 | 85 | 1013.5 |
| 20260903220007 | 55 | 104 | 7.0 | 19.0 | 0.00 | 0.00 | 0.00 | 84 | 1013.7 |
| 20260903214506 | 55 | 94 | 7.0 | 17.0 | 0.00 | 0.00 | 0.00 | 83 | 1014.0 |
| 20260903213002 | 55 | 105 | 9.0 | 20.0 | 0.00 | 0.00 | 0.00 | 83 | 1014.1 |
| 20260903211600 | 55 | 127 | 8.0 | 21.0 | 0.00 | 0.00 | 0.00 | 83 | 1014.4 |
| 20260903210100 | 55 | 115 | 8.0 | 21.0 | 0.00 | 0.00 | 0.00 | 83 | 1014.6 |
| 20260903204556 | 56 | 116 | 7.0 | 22.0 | 0.00 | 0.00 | 0.00 | 82 | 1014.6 |
| 20260903203057 | 56 | 109 | 9.0 | 20.0 | 0.00 | 0.00 | 0.00 | 82 | 1014.5 |
| 20260903201556 | 56 | 123 | 10.0 | 21.0 | 0.00 | 0.00 | 0.00 | 81 | 1014.6 |
| 20260903200054 | 57 | 117 | 13.0 | 25.0 | 0.00 | 0.00 | 0.00 | 81 | 1014.4 |
| 20260903194556 | 57 | 126 | 10.0 | 24.0 | 0.00 | 0.00 | 0.00 | 81 | 1014.0 |
| 20260903193053 | 57 | 111 | 11.0 | 21.0 | 0.00 | 0.00 | 0.00 | 82 | 1013.9 |
| 20260903191553 | 58 | 89 | 11.0 | 23.0 | 0.00 | 0.00 | 0.00 | 82 | 1013.7 |
| 20260903190052 | 58 | 105 | 10.0 | 22.0 | 0.00 | 0.00 | 0.00 | 82 | 1014.0 |
| 20260903184557 | 58 | 81 | 9.0 | 19.0 | 0.00 | 0.00 | 0.00 | 82 | 1013.9 |
| 20260903183151 | 58 | 113 | 10.0 | 19.0 | 0.00 | 0.00 | 0.00 | 82 | 1014.0 |
| 20260903181554 | 58 | 121 | 8.0 | 20.0 | 0.00 | 0.00 | 0.00 | 81 | 1013.8 |
| 20260903180056 | 59 | 85 | 9.0 | 18.0 | 0.00 | 0.00 | 0.00 | 81 | 1013.8 |
| 20260903174549 | 59 | 96 | 8.0 | 18.0 | 0.00 | 0.00 | 0.00 | 81 | 1013.6 |
| 20260903173051 | 59 | 89 | 10.0 | 23.0 | 0.00 | 0.00 | 0.00 | 81 | 1013.6 |
| 20260903171549 | 59 | 104 | 10.0 | 20.0 | 0.00 | 0.00 | 0.00 | 82 | 1013.5 |
| 20260903170051 | 59 | 115 | 11.0 | 20.0 | 0.00 | 0.00 | 0.00 | 80 | 1013.6 |
| 20260903164548 | 59 | 115 | 12.0 | 21.0 | 0.00 | 0.00 | 0.00 | 81 | 1013.5 |
| 20260903163058 | 60 | 82 | 10.0 | 24.0 | 0.00 | 0.00 | 0.00 | 81 | 1013.5 |